Time,TemperatureF,DewpointF,PressureIn,WindDirection,WindDirectionDegrees,WindSpeedMPH,WindSpeedGustMPH,Humidity,HourlyPrecipIn,Conditions,Clouds,dailyrainin,SoftwareType,DateUTC
2013-05-11 00:19:00,60.8,60.8,29.93,South,184,0.0,0.0,100,0.02,,,0.01,VWS V14.00,2013-05-11 04:19:00,
2013-05-11 00:39:00,61.2,61.2,29.91,South,184,0.0,0.0,100,0.03,,,0.02,VWS V14.00,2013-05-11 04:39:00,
2013-05-11 00:59:00,61.4,61.4,29.92,South,184,0.0,0.0,100,0.02,,RA,0.02,VWS V14.00,2013-05-11 04:59:00,
2013-05-11 01:19:00,60.4,60.4,29.88,South,184,0.0,0.0,100,0.01,,RA,0.02,VWS V14.00,2013-05-11 05:19:00,
2013-05-11 01:39:00,61.2,61.2,29.88,ENE,62,0.0,2.9,100,0.02,,RA,0.03,VWS V14.00,2013-05-11 05:39:00,
2013-05-11 01:59:00,60.8,60.8,29.89,ENE,62,0.0,0.0,100,0.01,,-RA,0.03,VWS V14.00,2013-05-11 05:59:00,
2013-05-11 02:19:00,59.1,59.1,29.87,ESE,111,0.0,5.2,100,0.02,,-RA,0.04,VWS V14.00,2013-05-11 06:19:00,
2013-05-11 02:39:00,60.6,60.6,29.87,ESE,111,0.0,0.0,100,0.01,,-RA,0.04,VWS V14.00,2013-05-11 06:39:00,
2013-05-11 02:59:00,60.1,60.1,29.88,South,184,4.8,4.8,100,0.01,,,0.04,VWS V14.00,2013-05-11 06:59:00,
2013-05-11 03:19:00,59.4,59.4,29.87,SE,146,0.0,7.1,100,0.02,,,0.05,VWS V14.00,2013-05-11 07:19:00,
2013-05-11 03:39:00,60.3,60.3,29.85,SE,146,0.0,0.0,100,0.01,,,0.05,VWS V14.00,2013-05-11 07:39:00,
2013-05-11 03:59:00,60.0,60.0,29.84,SE,146,0.0,0.0,100,0.01,,-RA,0.05,VWS V14.00,2013-05-11 07:59:00,
2013-05-11 04:19:00,59.1,59.1,29.84,SSE,149,5.0,7.1,100,0.01,,-RA,0.05,VWS V14.00,2013-05-11 08:19:00,
2013-05-11 04:39:00,60.6,60.6,29.84,SE,124,0.0,6.0,100,0.01,,-RA,0.06,VWS V14.00,2013-05-11 08:39:00,
2013-05-11 04:59:00,59.2,59.2,29.84,SSW,204,0.0,5.7,100,0.01,,OVC180,0.06,VWS V14.00,2013-05-11 08:59:00,
2013-05-11 05:19:00,59.5,59.5,29.84,SE,143,0.0,3.5,100,0.01,,OVC180,0.06,VWS V14.00,2013-05-11 09:19:00,
2013-05-11 05:39:00,60.3,60.3,29.83,SE,143,0.0,0.0,100,0.00,,OVC180,0.06,VWS V14.00,2013-05-11 09:39:00,
2013-05-11 05:59:00,59.7,59.7,29.83,SE,143,0.0,0.0,100,0.01,,OVC110,0.07,VWS V14.00,2013-05-11 09:59:00,
2013-05-11 06:19:00,59.2,59.2,29.82,SE,143,0.0,0.0,100,0.01,,OVC110,0.07,VWS V14.00,2013-05-11 10:19:00,
2013-05-11 06:39:00,59.8,59.8,29.82,SE,143,0.0,0.0,100,0.01,,OVC110,0.07,VWS V14.00,2013-05-11 10:39:00,
2013-05-11 06:59:00,59.7,59.7,29.82,SE,143,0.0,0.0,100,0.00,,OVC110,0.07,VWS V14.00,2013-05-11 10:59:00,
2013-05-11 07:19:00,59.9,59.9,29.83,South,174,5.2,7.2,100,0.01,,BKN180,0.08,VWS V14.00,2013-05-11 11:19:00,
2013-05-11 07:39:00,60.7,60.7,29.82,South,180,0.0,5.2,100,0.01,,BKN180,0.08,VWS V14.00,2013-05-11 11:39:00,
2013-05-11 07:59:00,61.1,61.1,29.82,SSW,210,0.0,5.3,100,0.01,,BKN180,0.08,VWS V14.00,2013-05-11 11:59:00,
2013-05-11 08:19:00,60.5,60.5,29.82,South,177,3.4,6.5,100,0.00,,BKN180,0.08,VWS V14.00,2013-05-11 12:19:00,
2013-05-11 08:39:00,60.7,60.7,29.82,SSW,193,0.0,7.1,100,0.01,,BKN180,0.09,VWS V14.00,2013-05-11 12:39:00,
2013-05-11 08:59:00,62.1,62.1,29.82,SSW,193,4.6,6.6,100,0.01,,BKN180,0.09,VWS V14.00,2013-05-11 12:59:00,
2013-05-11 09:19:00,61.4,61.4,29.82,SSE,166,0.0,7.8,100,0.01,,BKN250,0.09,VWS V14.00,2013-05-11 13:19:00,
2013-05-11 09:39:00,62.3,62.3,29.82,SE,134,0.0,9.7,100,0.00,,BKN250,0.09,VWS V14.00,2013-05-11 13:39:00,
2013-05-11 09:59:00,62.1,62.1,29.81,SSE,158,0.0,7.8,100,0.00,,BKN250,0.09,VWS V14.00,2013-05-11 13:59:00,
2013-05-11 10:19:00,63.3,63.3,29.81,SSE,156,0.0,7.3,100,0.01,,BKN250,0.10,VWS V14.00,2013-05-11 14:19:00,
2013-05-11 10:39:00,64.8,64.8,29.81,South,186,8.5,8.5,100,0.01,,BKN250,0.10,VWS V14.00,2013-05-11 14:39:00,
2013-05-11 10:59:00,65.6,65.6,29.81,SW,232,5.3,11.1,100,0.01,,-RA,0.10,VWS V14.00,2013-05-11 14:59:00,
2013-05-11 11:19:00,67.3,67.3,29.80,SE,138,4.5,9.3,100,0.00,,-RA,0.10,VWS V14.00,2013-05-11 15:19:00,
2013-05-11 11:39:00,67.7,66.4,29.79,SE,141,2.9,11.8,96,0.01,,-RA,0.11,VWS V14.00,2013-05-11 15:39:00,
2013-05-11 11:59:00,70.0,67.1,29.79,SSE,149,0.0,11.3,91,0.01,,,0.11,VWS V14.00,2013-05-11 15:59:00,
2013-05-11 12:19:00,70.5,66.0,29.78,SW,221,3.4,10.0,86,0.01,,,0.11,VWS V14.00,2013-05-11 16:19:00,
2013-05-11 12:39:00,69.7,64.1,29.78,West,259,0.0,11.2,82,0.01,,,0.12,VWS V14.00,2013-05-11 16:39:00,
2013-05-11 12:59:00,69.2,63.9,29.78,WSW,256,8.5,10.4,83,0.01,,,0.12,VWS V14.00,2013-05-11 16:59:00,
2013-05-11 13:19:00,72.6,65.7,29.77,West,264,1.9,8.7,79,0.01,,,0.12,VWS V14.00,2013-05-11 17:19:00,
2013-05-11 13:39:00,71.5,65.7,29.77,NW,314,5.2,11.3,82,0.00,,,0.12,VWS V14.00,2013-05-11 17:39:00,
2013-05-11 13:59:00,72.3,65.3,29.76,NNW,329,0.0,7.5,79,0.01,,-RA,0.13,VWS V14.00,2013-05-11 17:59:00,
2013-05-11 14:19:00,73.6,64.9,29.76,NW,325,3.3,8.1,74,0.01,,-RA,0.13,VWS V14.00,2013-05-11 18:19:00,
2013-05-11 14:39:00,74.3,63.7,29.76,WNW,287,5.0,7.8,69,0.01,,-RA,0.13,VWS V14.00,2013-05-11 18:39:00,
2013-05-11 14:59:00,72.0,61.7,29.75,South,188,9.0,9.0,70,0.00,,BKN250,0.13,VWS V14.00,2013-05-11 18:59:00,
2013-05-11 15:19:00,76.5,61.5,29.74,West,273,3.4,9.8,60,0.01,,BKN250,0.14,VWS V14.00,2013-05-11 19:19:00,
2013-05-11 15:39:00,76.0,58.8,29.73,SE,139,3.4,8.6,55,0.01,,BKN250,0.14,VWS V14.00,2013-05-11 19:39:00,
2013-05-11 15:59:00,74.8,60.4,29.73,SW,235,5.5,11.0,61,0.01,,BKN250,0.14,VWS V14.00,2013-05-11 19:59:00,
2013-05-11 16:19:00,73.9,61.3,29.72,SSW,194,5.7,12.2,65,0.00,,BKN250,0.14,VWS V14.00,2013-05-11 20:19:00,
2013-05-11 16:39:00,73.9,60.3,29.73,SSE,155,8.7,9.1,62,0.00,,BKN250,0.14,VWS V14.00,2013-05-11 20:39:00,
2013-05-11 16:59:00,75.1,58.8,29.72,NW,312,0.0,8.7,57,0.00,,BKN250,0.14,VWS V14.00,2013-05-11 20:59:00,
2013-05-11 17:19:00,73.9,62.3,29.72,SSW,195,0.0,7.0,67,0.01,,BKN250,0.15,VWS V14.00,2013-05-11 21:19:00,
2013-05-11 17:39:00,68.8,60.2,29.72,North,350,4.4,6.6,74,0.01,,BKN250,0.15,VWS V14.00,2013-05-11 21:39:00,
2013-05-11 17:59:00,66.5,63.7,29.75,WNW,300,17.9,17.9,91,0.01,,BKN250,0.15,VWS V14.00,2013-05-11 21:59:00,
2013-05-11 18:19:00,62.2,62.2,29.75,WSW,252,0.0,17.9,100,0.00,,BKN250,0.15,VWS V14.00,2013-05-11 22:19:00,
2013-05-11 18:39:00,60.3,60.3,29.74,NW,304,0.0,4.7,100,0.00,,BKN250,0.15,VWS V14.00,2013-05-11 22:39:00,
2013-05-11 18:59:00,59.9,59.9,29.75,WNW,302,0.0,2.7,100,0.00,,-RA,0.15,VWS V14.00,2013-05-11 22:59:00,
2013-05-11 19:19:00,62.7,62.7,29.75,East,101,0.0,3.2,100,0.00,, +RA,0.15,VWS V14.00,2013-05-11 23:19:00,
2013-05-11 19:39:00,60.6,60.6,29.75,East,101,0.0,0.0,100,0.01,, +RA,0.16,VWS V14.00,2013-05-11 23:39:00,
2013-05-11 19:59:00,61.3,61.3,29.75,East,101,0.0,0.0,100,0.01,,-RA,0.16,VWS V14.00,2013-05-11 23:59:00,
2013-05-11 20:19:00,61.2,61.2,29.75,East,101,0.0,0.0,100,0.01,,BKN110,0.16,VWS V14.00,2013-05-12 00:19:00,
2013-05-11 20:39:00,60.5,60.5,29.75,East,101,0.0,0.0,100,0.00,,BKN110,0.16,VWS V14.00,2013-05-12 00:39:00,
2013-05-11 20:59:00,60.7,60.7,29.76,East,101,0.0,0.0,100,0.00,,BKN110,0.16,VWS V14.00,2013-05-12 00:59:00,
2013-05-11 21:19:00,59.7,59.7,29.79,South,173,5.6,5.6,100,0.00,,BKN110,0.16,VWS V14.00,2013-05-12 01:19:00,
2013-05-11 21:39:00,61.1,61.1,29.77,SE,128,0.0,5.6,100,0.00,,BKN110,0.16,VWS V14.00,2013-05-12 01:39:00,
2013-05-11 21:59:00,60.2,60.2,29.78,SE,143,0.0,5.2,100,0.00,,RA,0.16,VWS V14.00,2013-05-12 01:59:00,
2013-05-11 22:19:00,59.7,59.7,29.77,SE,143,0.0,0.0,100,0.00,,RA,0.16,VWS V14.00,2013-05-12 02:19:00,
2013-05-11 22:39:00,58.9,58.9,29.77,SE,143,0.0,0.0,100,0.01,,RA,0.17,VWS V14.00,2013-05-12 02:39:00,
2013-05-11 22:59:00,60.6,60.6,29.76,SE,143,0.0,0.0,100,0.01,,-RA,0.17,VWS V14.00,2013-05-12 02:59:00,
2013-05-11 23:19:00,59.5,59.5,29.76,SE,143,0.0,0.0,100,0.00,,-RA,0.17,VWS V14.00,2013-05-12 03:19:00,
2013-05-11 23:39:00,59.2,59.2,29.76,SE,143,0.0,0.0,100,0.00,,-RA,0.17,VWS V14.00,2013-05-12 03:39:00,